International Skating Union - Official Site

ISU World Cup Hamar
January 31 - February 1, 2015

Draw | Lap Times | Index | World Cup

Referee: Debora  SIGHEL  (ITA)
Starter: Tone  SØRLI  (NOR)
StartTime: EndTime: Air Temp: Ice Temp: Humidity:
15:10 15:25
Result Mass Start Ladies
Rankings as of Feb 1 2015 4:01PM
Rank: No.: Name: Nation: Time: Behind: Points:
1 37 Irene  Schouten NED NED 8:47.47 100
2 4 Ivanie  Blondin CAN CAN 8:47.51 0.04 80
3 34 Mariska  Huisman NED NED 8:47.67 0.20 70
4 26 Miho  Takagi JPN JPN 8:49.60 2.13 60
5 21 Claudia  Pechstein GER GER 8:50.00 2.53 50
6 3 Marina  Zuyeva BLR BLR 8:51.25 3.78 45
7 22 Francesca  Lollobrigida ITA ITA 8:47.83 0.36 40
8 1 Jelena  Peeters BEL BEL 8:49.96 2.49 36
9 15 Nikola  Zdráhalová CZE CZE 8:50.75 3.28 32
10 19 Bente  Kraus GER GER 8:50.99 3.52 28
11 29 Ye-Jin  Jun KOR KOR 8:47.89 0.42 24
12 10 Jing  Liu CHN CHN 8:49.02 1.55 21
13 5 Kali  Christ CAN CAN 8:49.20 1.73 18
14 11 Yichi  Liu CHN CHN 8:49.32 1.85 16
15 44 Frida  van Megen NOR NOR 8:49.35 1.88 14
16 16 Elena  Møller-Rigas DEN DEN 8:50.13 2.66 12
17 27 Nana  Takagi JPN JPN 8:50.48 3.01 10
18 61 Carlijn  Schoutens USA USA 8:50.77 3.30 8
19 57 Erin  Bartlett USA USA 8:50.85 3.38 6
20 17 Saskia  Alusalu EST EST 8:51.35 3.88 5
21 47 Aleksandra  Goss POL POL 8:51.93 4.46 4
22 48 Urszula  Wlodarczyk POL POL 8:52.11 4.64 3
23 13 Natalie  Kerschbaummayr CZE CZE 8:52.33 4.86 2
24 42 Sofie  Haugen NOR NOR 8:52.47 5.00 1
25 30 Bo-Reum  Kim KOR KOR 8:21.19 -26.28 0